Regional Weather Roundup
Issued by NWS

Home | Current Version | Previous Version | Text Only | Print | Product List | Glossary Off
Versions: 1 2 3 4 5 6 7 8 9 10 11 12 13 14 15 16 17 18 19 20 21 22 23 24 25 26 27 28 29 30 31 32 33 34 35 36 37 38 39 40 41 42 43 44 45 46 47 48 49 50

000
ASUS43 KMKX 261221
RWRWI

WISCONSIN REGIONAL WEATHER ROUNDUP
NATIONAL WEATHER SERVICE MILWAUKEE/SULLIVAN WI
700 AM CDT TUE JUL 26 2016

NOTE: "FAIR" INDICATES FEW OR NO CLOUDS BELOW 12,000 FEET WITH NO
SIGNIFICANT WEATHER AND/OR OBSTRUCTIONS TO VISIBILITY.

WIZ001-002-006>008-014>016-023>028-261300-
NORTHWEST WISCONSIN

CITY           SKY/WX    TMP DP  RH WIND       PRES   REMARKS
SUPERIOR ARPT  CLOUDY    68  65  92 SW5       29.98S
6HR MIN TEMP:  66; 6HR MAX TEMP:  69;

ASHLAND          N/A     71  65  81 SW5       30.02R
6HR MIN TEMP:  65; 6HR MAX TEMP:  71;

HAYWARD        PTSUNNY   63  61  93 CALM      30.05S
6HR MIN TEMP:  59; 6HR MAX TEMP:  64;

SIREN          MOSUNNY   72  64  78 S5        30.03S
CUMBERLAND     PTSUNNY   63  63 100 S3        30.06S
RICE LAKE      PTSUNNY   65  64  96 CALM      30.08R
6HR MIN TEMP:  61; 6HR MAX TEMP:  65;

CHETEK         MOSUNNY   65  64  99 CALM      30.07S
6HR MIN TEMP:  62; 6HR MAX TEMP:  65;

LADYSMITH      MOSUNNY   64  63  96 CALM      30.09R
6HR MIN TEMP:  60; 6HR MAX TEMP:  65;

EAU CLAIRE     SUNNY     67  65  93 CALM      30.06R
6HR MIN TEMP:  64; 6HR MAX TEMP:  67;

MENOMONIE      MOSUNNY   66  65  97 CALM      30.06S
6HR MIN TEMP:  63; 6HR MAX TEMP:  67;

NEW RICHMOND   SUNNY     69  65  88 S3        30.06R
6HR MIN TEMP:  64; 6HR MAX TEMP:  69;

OSCEOLA        SUNNY     68  68 100 S6        30.07R
6HR MIN TEMP:  64; 6HR MAX TEMP:  68;

$$

WIZ003>005-009-010-017-018-261300-
NORTH CENTRAL WISCONSIN

CITY           SKY/WX    TMP DP  RH WIND       PRES   REMARKS
MANITOWISH WTR SUNNY     63  63 100 CALM      30.07S
6HR MIN TEMP:  56; 6HR MAX TEMP:  63;

ARBOR VITAE    SUNNY     64  62  93 CALM      30.08S
6HR MIN TEMP:  59; 6HR MAX TEMP:  64;

WOODRUFF       SUNNY     64  62  93 CALM      30.08S
6HR MIN TEMP:  59; 6HR MAX TEMP:  64;

RHINELANDER    SUNNY     66  62  87 W6        30.09R
6HR MIN TEMP:  59; 6HR MAX TEMP:  66;

EAGLE RIVER    SUNNY     63  63 100 CALM      30.07S
6HR MIN TEMP:  55; 6HR MAX TEMP:  63;

LAND O LAKES   SUNNY     60  60 100 CALM      30.09R
6HR MIN TEMP:  53; 6HR MAX TEMP:  60;

PHILLIPS       SUNNY     65  63  94 S3        30.08S
6HR MIN TEMP:  59; 6HR MAX TEMP:  64;

TOMAHAWK       SUNNY     61  60  96 CALM      30.09R
6HR MIN TEMP:  55; 6HR MAX TEMP:  61;

MEDFORD        SUNNY     64  64 100 CALM      30.09R
6HR MIN TEMP:  56; 6HR MAX TEMP:  64;

MERRILL        SUNNY     59  59  98 CALM      30.10R
6HR MIN TEMP:  54; 6HR MAX TEMP:  59;

$$

WIZ029-030-035-036-043>047-261300-
CENTRAL WISCONSIN

CITY           SKY/WX    TMP DP  RH WIND       PRES   REMARKS
WAUSAU         SUNNY     66  63  90 VRB3      30.07R
6HR MIN TEMP:  61; 6HR MAX TEMP:  66;

MOSINEE        SUNNY     64  64 100 W5        30.10R
MARSHFIELD     SUNNY     67  63  87 CALM      30.08R
6HR MIN TEMP:  63; 6HR MAX TEMP:  67;

STEVENS POINT  SUNNY     61  59  94 CALM      30.09R
6HR MIN TEMP:  56; 6HR MAX TEMP:  61;

WAUPACA        MOSUNNY   67  66  98 CALM      30.08R
6HR MIN TEMP:  63; 6HR MAX TEMP:  68;

WAUTOMA        SUNNY     63  62  97 CALM      30.08
6HR MIN TEMP:  59; 6HR MAX TEMP:  63;

WISC RAPIDS    SUNNY     65  62  90 CALM      30.09R
6HR MIN TEMP:  59; 6HR MAX TEMP:  65;

CAMP DOUGLAS   MOSUNNY   59  59 100 E1        30.07S
$$

WIZ011>013-019>022-031-037>040-048>050-261300-
NORTHEAST WISCONSIN

CITY           SKY/WX    TMP DP  RH WIND       PRES   REMARKS
ANTIGO         SUNNY     62  60  96 CALM      30.10R
6HR MIN TEMP:  55; 6HR MAX TEMP:  62;

SHAWANO        SUNNY     67  63  85 CALM      30.06R
6HR MIN TEMP:  61; 6HR MAX TEMP:  67;

OCONTO         MOSUNNY   65  65 100 W3        30.04R
STURGEON BAY   SUNNY     69  66  90 CALM      30.05R
6HR MIN TEMP:  64; 6HR MAX TEMP:  69;

GREEN BAY      SUNNY     65  65 100 CALM      30.05R
6HR MIN TEMP:  60; 6HR MAX TEMP:  66;

MANITOWOC      SUNNY     68  61  78 W3        30.06R
6HR MIN TEMP:  65; 6HR MAX TEMP:  70; 6HR PCP:  0.01;

APPLETON       MOSUNNY   66  64  94 W8        30.05R
CLINTONVILLE   SUNNY     68  63  83 W5        30.07R
OSHKOSH        SUNNY     66  62  87 S5        30.07R
6HR MIN TEMP:  62; 6HR MAX TEMP:  69;

$$

WIZ032>034-041-042-053>061-261300-
SOUTHWEST WISCONSIN

CITY           SKY/WX    TMP DP  RH WIND       PRES   REMARKS
LA CROSSE      CLOUDY    67  66  97 SE6       30.06F FOG
6HR MIN TEMP:  66; 6HR MAX TEMP:  70;

SPARTA         MOSUNNY   58  58  97 CALM      30.09R
6HR MIN TEMP:  55; 6HR MAX TEMP:  60;

VIROQUA        MOSUNNY   65  65 100 CALM      30.09S
6HR MIN TEMP:  62; 6HR MAX TEMP:  65;

BOSCOBEL       FOG       65  64  97 CALM      30.09S VSB<1/4
6HR MIN TEMP:  62; 6HR MAX TEMP:  66;

PRAIRIE DU CHI DRZL/FOG  65  64  96 CALM      30.08S VSB<1/4
6HR MIN TEMP:  63; 6HR MAX TEMP:  66;

PLATTEVILLE    SUNNY     66  66 100 CALM      30.10R
6HR MIN TEMP:  62; 6HR MAX TEMP:  67;

$$

WIZ056-057-062-063-064-067-068-261300-
SOUTH CENTRAL WISCONSIN

CITY           SKY/WX    TMP DP  RH WIND       PRES   REMARKS
REEDSBURG      SUNNY     62  62 100 CALM      30.08S
6HR MIN TEMP:  60; 6HR MAX TEMP:  66;

BARABOO/DELLS  SUNNY     64  62  94 CALM      30.09S
6HR MIN TEMP:  60; 6HR MAX TEMP:  64;

LONE ROCK      FOG       63  63 100 CALM      30.09S VSB<1/4
6HR MIN TEMP:  61; 6HR MAX TEMP:  64;

MINERAL POINT  SUNNY     68  64  88 CALM      30.10R
MADISON        MOSUNNY   68  65  90 CALM      30.08S
6HR MIN TEMP:  63; 6HR MAX TEMP:  68;

MIDDLETON      SUNNY     66  66 100 CALM      30.09S
6HR MIN TEMP:  62; 6HR MAX TEMP:  66;

WATERTOWN      MOSUNNY   65  65 100 CALM      30.08S
6HR MIN TEMP:  61; 6HR MAX TEMP:  65;

MONROE         SUNNY     70  61  73 NE5       30.09S
JANESVILLE     SUNNY     66  64  94 CALM      30.08S
$$

WIZ051-052-058>065-066-070>072-261300-
SOUTHEAST WISCONSIN

CITY           SKY/WX    TMP DP  RH WIND       PRES   REMARKS
MILWAUKEE      MOSUNNY   74  64  71 NW3       30.07R
6HR MIN TEMP:  68; 6HR MAX TEMP:  75;

WAUKESHA       SUNNY     66  63  88 W5        30.09R
MILWAUKEE/TIMM SUNNY     66  59  77 CALM      30.08R
RACINE         SUNNY     71  63  75 NW6       30.09R
6HR MIN TEMP:  66; 6HR MAX TEMP:  71;

BURLINGTON     SUNNY     64  64  99 CALM      30.08S
6HR MIN TEMP:  59; 6HR MAX TEMP:  64;

KENOSHA        SUNNY     70  64  81 NW5       30.08R
6HR MIN TEMP:  63; 6HR MAX TEMP:  70;

FOND DU LAC    SUNNY     68  63  84 SW3       30.08R
6HR MIN TEMP:  62; 6HR MAX TEMP:  70;

SHEBOYGAN      SUNNY     68  65  90 SW3       30.07R
6HR MIN TEMP:  62; 6HR MAX TEMP:  68;

WEST BEND      MOSUNNY   64  63  94 CALM      30.08S
JUNEAU         MOSUNNY   63  62  97 CALM      30.09S
6HR MIN TEMP:  60; 6HR MAX TEMP:  64;

$$

LSZ147-162-261300-
LAKE SUPERIOR

STATION/POSITION TIME  TEMP    WIND        PRES    WAVE
                       AIR SEA DIR/SP/G            HT/PER
                 (UTC) (F)     (DEG/KT/KT) (MB)    (FT/S)
W MID LAKE BUOY  1150   63 60  240/  6/  6 1014.7S   0
DEVILS ISLAND    1200   69     280/  7/  8 1015.9R
SAXON HARBOR     1100   69     180/  5/ 10 1015.9
$$

LMZ867-665-643>646-261300-
LAKE MICHIGAN

STATION/POSITION TIME  TEMP    WIND        PRES    WAVE
                       AIR SEA DIR/SP/G            HT/PER
                 (UTC) (F)     (DEG/KT/KT) (MB)    (FT/S)
CHAMBERS ISLAND  1100   66     210/  3/  4 1016.3F
S GREEN BAY BUOY 1200   72 73  230/  8/  8   N/A
N MID LAKEC1F1C2F2C3F3C4F4C5F5C6F6C7F7C8M1C9M2Ca!



USA.gov is the U.S. government's official web portal to all federal, state and local government web resources and services.